Index of /20260415/WXO-DD/model_rdps/10km/00/053
Name Last modified Size Description
Parent Directory -
20260415T00Z_MSC_RDPS_AbsoluteVorticity_IsbL-0250_RLatLon0.09_PT053H.grib2 2026-04-15 02:56 606K
20260415T00Z_MSC_RDPS_AbsoluteVorticity_IsbL-0500_RLatLon0.09_PT053H.grib2 2026-04-15 02:56 556K
20260415T00Z_MSC_RDPS_AbsoluteVorticity_IsbL-0700_RLatLon0.09_PT053H.grib2 2026-04-15 02:56 608K
20260415T00Z_MSC_RDPS_AbsoluteVorticity_IsbL-0850_RLatLon0.09_PT053H.grib2 2026-04-15 02:56 771K
20260415T00Z_MSC_RDPS_AirTemp_AGL-120m_RLatLon0.09_PT053H.grib2 2026-04-15 02:56 372K
20260415T00Z_MSC_RDPS_AirTemp_AGL-2m_RLatLon0.09_PT053H.grib2 2026-04-15 02:56 629K
20260415T00Z_MSC_RDPS_AirTemp_AGL-40m_RLatLon0.09_PT053H.grib2 2026-04-15 02:56 403K
20260415T00Z_MSC_RDPS_AirTemp_AGL-80m_RLatLon0.09_PT053H.grib2 2026-04-15 02:56 378K
20260415T00Z_MSC_RDPS_AirTemp_IsbL-0001_RLatLon0.09_PT053H.grib2 2026-04-15 02:56 291K
20260415T00Z_MSC_RDPS_AirTemp_IsbL-0005_RLatLon0.09_PT053H.grib2 2026-04-15 02:56 331K
20260415T00Z_MSC_RDPS_AirTemp_IsbL-0010_RLatLon0.09_PT053H.grib2 2026-04-15 02:56 341K
20260415T00Z_MSC_RDPS_AirTemp_IsbL-0020_RLatLon0.09_PT053H.grib2 2026-04-15 02:56 359K
20260415T00Z_MSC_RDPS_AirTemp_IsbL-0030_RLatLon0.09_PT053H.grib2 2026-04-15 02:56 382K
20260415T00Z_MSC_RDPS_AirTemp_IsbL-0050_RLatLon0.09_PT053H.grib2 2026-04-15 02:56 330K
20260415T00Z_MSC_RDPS_AirTemp_IsbL-0100_RLatLon0.09_PT053H.grib2 2026-04-15 02:56 391K
20260415T00Z_MSC_RDPS_AirTemp_IsbL-0150_RLatLon0.09_PT053H.grib2 2026-04-15 02:56 408K
20260415T00Z_MSC_RDPS_AirTemp_IsbL-0175_RLatLon0.09_PT053H.grib2 2026-04-15 02:56 406K
20260415T00Z_MSC_RDPS_AirTemp_IsbL-0200_RLatLon0.09_PT053H.grib2 2026-04-15 02:56 411K
20260415T00Z_MSC_RDPS_AirTemp_IsbL-0225_RLatLon0.09_PT053H.grib2 2026-04-15 02:56 414K
20260415T00Z_MSC_RDPS_AirTemp_IsbL-0250_RLatLon0.09_PT053H.grib2 2026-04-15 02:56 422K
20260415T00Z_MSC_RDPS_AirTemp_IsbL-0275_RLatLon0.09_PT053H.grib2 2026-04-15 02:56 404K
20260415T00Z_MSC_RDPS_AirTemp_IsbL-0300_RLatLon0.09_PT053H.grib2 2026-04-15 02:56 435K
20260415T00Z_MSC_RDPS_AirTemp_IsbL-0350_RLatLon0.09_PT053H.grib2 2026-04-15 02:56 419K
20260415T00Z_MSC_RDPS_AirTemp_IsbL-0400_RLatLon0.09_PT053H.grib2 2026-04-15 02:56 420K
20260415T00Z_MSC_RDPS_AirTemp_IsbL-0450_RLatLon0.09_PT053H.grib2 2026-04-15 02:56 392K
20260415T00Z_MSC_RDPS_AirTemp_IsbL-0500_RLatLon0.09_PT053H.grib2 2026-04-15 02:56 402K
20260415T00Z_MSC_RDPS_AirTemp_IsbL-0550_RLatLon0.09_PT053H.grib2 2026-04-15 02:56 420K
20260415T00Z_MSC_RDPS_AirTemp_IsbL-0600_RLatLon0.09_PT053H.grib2 2026-04-15 02:56 437K
20260415T00Z_MSC_RDPS_AirTemp_IsbL-0650_RLatLon0.09_PT053H.grib2 2026-04-15 02:56 450K
20260415T00Z_MSC_RDPS_AirTemp_IsbL-0700_RLatLon0.09_PT053H.grib2 2026-04-15 02:56 472K
20260415T00Z_MSC_RDPS_AirTemp_IsbL-0750_RLatLon0.09_PT053H.grib2 2026-04-15 02:56 400K
20260415T00Z_MSC_RDPS_AirTemp_IsbL-0800_RLatLon0.09_PT053H.grib2 2026-04-15 02:56 447K
20260415T00Z_MSC_RDPS_AirTemp_IsbL-0850_RLatLon0.09_PT053H.grib2 2026-04-15 02:56 494K
20260415T00Z_MSC_RDPS_AirTemp_IsbL-0875_RLatLon0.09_PT053H.grib2 2026-04-15 02:56 510K
20260415T00Z_MSC_RDPS_AirTemp_IsbL-0900_RLatLon0.09_PT053H.grib2 2026-04-15 02:56 521K
20260415T00Z_MSC_RDPS_AirTemp_IsbL-0925_RLatLon0.09_PT053H.grib2 2026-04-15 02:56 523K
20260415T00Z_MSC_RDPS_AirTemp_IsbL-0950_RLatLon0.09_PT053H.grib2 2026-04-15 02:56 517K
20260415T00Z_MSC_RDPS_AirTemp_IsbL-0970_RLatLon0.09_PT053H.grib2 2026-04-15 02:56 512K
20260415T00Z_MSC_RDPS_AirTemp_IsbL-0985_RLatLon0.09_PT053H.grib2 2026-04-15 02:56 514K
20260415T00Z_MSC_RDPS_AirTemp_IsbL-1000_RLatLon0.09_PT053H.grib2 2026-04-15 02:56 486K
20260415T00Z_MSC_RDPS_AirTemp_IsbL-1015_RLatLon0.09_PT053H.grib2 2026-04-15 02:56 497K
20260415T00Z_MSC_RDPS_Albedo_Sfc_RLatLon0.09_PT053H.grib2 2026-04-15 02:56 165K
20260415T00Z_MSC_RDPS_CAPE_Sfc_RLatLon0.09_PT053H.grib2 2026-04-15 02:56 1.7M
20260415T00Z_MSC_RDPS_CIN_Sfc_RLatLon0.09_PT053H.grib2 2026-04-15 02:56 1.1M
20260415T00Z_MSC_RDPS_CloudWater_EAtm_RLatLon0.09_PT053H.grib2 2026-04-15 02:56 210K
20260415T00Z_MSC_RDPS_ConvectivePrecip-Accum_Sfc_RLatLon0.09_PT053H.grib2 2026-04-15 02:56 1.1M
20260415T00Z_MSC_RDPS_DewPointDepression_AGL-2m_RLatLon0.09_PT053H.grib2 2026-04-15 02:56 382K
20260415T00Z_MSC_RDPS_DewPointDepression_IsbL-0001_RLatLon0.09_PT053H.grib2 2026-04-15 02:56 193
20260415T00Z_MSC_RDPS_DewPointDepression_IsbL-0005_RLatLon0.09_PT053H.grib2 2026-04-15 02:56 193
20260415T00Z_MSC_RDPS_DewPointDepression_IsbL-0010_RLatLon0.09_PT053H.grib2 2026-04-15 02:56 193
20260415T00Z_MSC_RDPS_DewPointDepression_IsbL-0020_RLatLon0.09_PT053H.grib2 2026-04-15 02:56 193
20260415T00Z_MSC_RDPS_DewPointDepression_IsbL-0030_RLatLon0.09_PT053H.grib2 2026-04-15 02:56 9.7K
20260415T00Z_MSC_RDPS_DewPointDepression_IsbL-0050_RLatLon0.09_PT053H.grib2 2026-04-15 02:56 106K
20260415T00Z_MSC_RDPS_DewPointDepression_IsbL-0100_RLatLon0.09_PT053H.grib2 2026-04-15 02:56 123K
20260415T00Z_MSC_RDPS_DewPointDepression_IsbL-0150_RLatLon0.09_PT053H.grib2 2026-04-15 02:56 146K
20260415T00Z_MSC_RDPS_DewPointDepression_IsbL-0175_RLatLon0.09_PT053H.grib2 2026-04-15 02:56 173K
20260415T00Z_MSC_RDPS_DewPointDepression_IsbL-0200_RLatLon0.09_PT053H.grib2 2026-04-15 02:56 202K
20260415T00Z_MSC_RDPS_DewPointDepression_IsbL-0225_RLatLon0.09_PT053H.grib2 2026-04-15 02:56 246K
20260415T00Z_MSC_RDPS_DewPointDepression_IsbL-0250_RLatLon0.09_PT053H.grib2 2026-04-15 02:56 295K
20260415T00Z_MSC_RDPS_DewPointDepression_IsbL-0275_RLatLon0.09_PT053H.grib2 2026-04-15 02:56 302K
20260415T00Z_MSC_RDPS_DewPointDepression_IsbL-0300_RLatLon0.09_PT053H.grib2 2026-04-15 02:56 318K
20260415T00Z_MSC_RDPS_DewPointDepression_IsbL-0350_RLatLon0.09_PT053H.grib2 2026-04-15 02:56 321K
20260415T00Z_MSC_RDPS_DewPointDepression_IsbL-0400_RLatLon0.09_PT053H.grib2 2026-04-15 02:56 328K
20260415T00Z_MSC_RDPS_DewPointDepression_IsbL-0450_RLatLon0.09_PT053H.grib2 2026-04-15 02:56 336K
20260415T00Z_MSC_RDPS_DewPointDepression_IsbL-0500_RLatLon0.09_PT053H.grib2 2026-04-15 02:56 343K
20260415T00Z_MSC_RDPS_DewPointDepression_IsbL-0550_RLatLon0.09_PT053H.grib2 2026-04-15 02:56 357K
20260415T00Z_MSC_RDPS_DewPointDepression_IsbL-0600_RLatLon0.09_PT053H.grib2 2026-04-15 02:56 372K
20260415T00Z_MSC_RDPS_DewPointDepression_IsbL-0650_RLatLon0.09_PT053H.grib2 2026-04-15 02:56 381K
20260415T00Z_MSC_RDPS_DewPointDepression_IsbL-0700_RLatLon0.09_PT053H.grib2 2026-04-15 02:56 391K
20260415T00Z_MSC_RDPS_DewPointDepression_IsbL-0750_RLatLon0.09_PT053H.grib2 2026-04-15 02:56 411K
20260415T00Z_MSC_RDPS_DewPointDepression_IsbL-0800_RLatLon0.09_PT053H.grib2 2026-04-15 02:56 440K
20260415T00Z_MSC_RDPS_DewPointDepression_IsbL-0850_RLatLon0.09_PT053H.grib2 2026-04-15 02:56 464K
20260415T00Z_MSC_RDPS_DewPointDepression_IsbL-0875_RLatLon0.09_PT053H.grib2 2026-04-15 02:56 461K
20260415T00Z_MSC_RDPS_DewPointDepression_IsbL-0900_RLatLon0.09_PT053H.grib2 2026-04-15 02:56 456K
20260415T00Z_MSC_RDPS_DewPointDepression_IsbL-0925_RLatLon0.09_PT053H.grib2 2026-04-15 02:56 445K
20260415T00Z_MSC_RDPS_DewPointDepression_IsbL-0950_RLatLon0.09_PT053H.grib2 2026-04-15 02:56 433K
20260415T00Z_MSC_RDPS_DewPointDepression_IsbL-0970_RLatLon0.09_PT053H.grib2 2026-04-15 02:56 422K
20260415T00Z_MSC_RDPS_DewPointDepression_IsbL-0985_RLatLon0.09_PT053H.grib2 2026-04-15 02:56 418K
20260415T00Z_MSC_RDPS_DewPointDepression_IsbL-1000_RLatLon0.09_PT053H.grib2 2026-04-15 02:56 414K
20260415T00Z_MSC_RDPS_DewPointDepression_IsbL-1015_RLatLon0.09_PT053H.grib2 2026-04-15 02:56 406K
20260415T00Z_MSC_RDPS_DewPoint_AGL-2m_RLatLon0.09_PT053H.grib2 2026-04-15 02:56 303K
20260415T00Z_MSC_RDPS_DownwardLongwaveRadiationFlux-Accum_Sfc_RLatLon0.09_PT053H.grib2 2026-04-15 02:56 377K
20260415T00Z_MSC_RDPS_DownwardShortwaveRadiationFlux-Accum_NTAtm_RLatLon0.09_PT053H.grib2 2026-04-15 02:56 105K
20260415T00Z_MSC_RDPS_DownwardShortwaveRadiationFlux-Accum_Sfc_RLatLon0.09_PT053H.grib2 2026-04-15 02:56 544K
20260415T00Z_MSC_RDPS_FreezingRain-Accum1h_Sfc_RLatLon0.09_PT053H.grib2 2026-04-15 02:56 42K
20260415T00Z_MSC_RDPS_FreezingRain-Accum_Sfc_RLatLon0.09_PT053H.grib2 2026-04-15 02:56 139K
20260415T00Z_MSC_RDPS_GeopotentialHeight_IsbL-0001_RLatLon0.09_PT053H.grib2 2026-04-15 02:56 208K
20260415T00Z_MSC_RDPS_GeopotentialHeight_IsbL-0005_RLatLon0.09_PT053H.grib2 2026-04-15 02:56 234K
20260415T00Z_MSC_RDPS_GeopotentialHeight_IsbL-0010_RLatLon0.09_PT053H.grib2 2026-04-15 02:56 306K
20260415T00Z_MSC_RDPS_GeopotentialHeight_IsbL-0020_RLatLon0.09_PT053H.grib2 2026-04-15 02:56 335K
20260415T00Z_MSC_RDPS_GeopotentialHeight_IsbL-0030_RLatLon0.09_PT053H.grib2 2026-04-15 02:56 310K
20260415T00Z_MSC_RDPS_GeopotentialHeight_IsbL-0050_RLatLon0.09_PT053H.grib2 2026-04-15 02:56 239K
20260415T00Z_MSC_RDPS_GeopotentialHeight_IsbL-0100_RLatLon0.09_PT053H.grib2 2026-04-15 02:56 223K
20260415T00Z_MSC_RDPS_GeopotentialHeight_IsbL-0150_RLatLon0.09_PT053H.grib2 2026-04-15 02:56 264K
20260415T00Z_MSC_RDPS_GeopotentialHeight_IsbL-0175_RLatLon0.09_PT053H.grib2 2026-04-15 02:56 265K
20260415T00Z_MSC_RDPS_GeopotentialHeight_IsbL-0200_RLatLon0.09_PT053H.grib2 2026-04-15 02:56 266K
20260415T00Z_MSC_RDPS_GeopotentialHeight_IsbL-0225_RLatLon0.09_PT053H.grib2 2026-04-15 02:56 268K
20260415T00Z_MSC_RDPS_GeopotentialHeight_IsbL-0250_RLatLon0.09_PT053H.grib2 2026-04-15 02:56 270K
20260415T00Z_MSC_RDPS_GeopotentialHeight_IsbL-0275_RLatLon0.09_PT053H.grib2 2026-04-15 02:56 269K
20260415T00Z_MSC_RDPS_GeopotentialHeight_IsbL-0300_RLatLon0.09_PT053H.grib2 2026-04-15 02:56 268K
20260415T00Z_MSC_RDPS_GeopotentialHeight_IsbL-0350_RLatLon0.09_PT053H.grib2 2026-04-15 02:56 262K
20260415T00Z_MSC_RDPS_GeopotentialHeight_IsbL-0400_RLatLon0.09_PT053H.grib2 2026-04-15 02:56 228K
20260415T00Z_MSC_RDPS_GeopotentialHeight_IsbL-0450_RLatLon0.09_PT053H.grib2 2026-04-15 02:56 224K
20260415T00Z_MSC_RDPS_GeopotentialHeight_IsbL-0500_RLatLon0.09_PT053H.grib2 2026-04-15 02:56 290K
20260415T00Z_MSC_RDPS_GeopotentialHeight_IsbL-0550_RLatLon0.09_PT053H.grib2 2026-04-15 02:56 286K
20260415T00Z_MSC_RDPS_GeopotentialHeight_IsbL-0600_RLatLon0.09_PT053H.grib2 2026-04-15 02:56 283K
20260415T00Z_MSC_RDPS_GeopotentialHeight_IsbL-0650_RLatLon0.09_PT053H.grib2 2026-04-15 02:56 280K
20260415T00Z_MSC_RDPS_GeopotentialHeight_IsbL-0700_RLatLon0.09_PT053H.grib2 2026-04-15 02:56 251K
20260415T00Z_MSC_RDPS_GeopotentialHeight_IsbL-0750_RLatLon0.09_PT053H.grib2 2026-04-15 02:56 253K
20260415T00Z_MSC_RDPS_GeopotentialHeight_IsbL-0800_RLatLon0.09_PT053H.grib2 2026-04-15 02:56 341K
20260415T00Z_MSC_RDPS_GeopotentialHeight_IsbL-0850_RLatLon0.09_PT053H.grib2 2026-04-15 02:56 382K
20260415T00Z_MSC_RDPS_GeopotentialHeight_IsbL-0875_RLatLon0.09_PT053H.grib2 2026-04-15 02:56 384K
20260415T00Z_MSC_RDPS_GeopotentialHeight_IsbL-0900_RLatLon0.09_PT053H.grib2 2026-04-15 02:56 389K
20260415T00Z_MSC_RDPS_GeopotentialHeight_IsbL-0925_RLatLon0.09_PT053H.grib2 2026-04-15 02:56 393K
20260415T00Z_MSC_RDPS_GeopotentialHeight_IsbL-0950_RLatLon0.09_PT053H.grib2 2026-04-15 02:56 395K
20260415T00Z_MSC_RDPS_GeopotentialHeight_IsbL-0970_RLatLon0.09_PT053H.grib2 2026-04-15 02:56 400K
20260415T00Z_MSC_RDPS_GeopotentialHeight_IsbL-0985_RLatLon0.09_PT053H.grib2 2026-04-15 02:56 408K
20260415T00Z_MSC_RDPS_GeopotentialHeight_IsbL-1000_RLatLon0.09_PT053H.grib2 2026-04-15 02:56 420K
20260415T00Z_MSC_RDPS_GeopotentialHeight_IsbL-1015_RLatLon0.09_PT053H.grib2 2026-04-15 02:56 435K
20260415T00Z_MSC_RDPS_Humidex_Sfc_RLatLon0.09_PT053H.grib2 2026-04-15 02:56 2.4M
20260415T00Z_MSC_RDPS_IcePellets-Accum1h_Sfc_RLatLon0.09_PT053H.grib2 2026-04-15 02:56 7.8K
20260415T00Z_MSC_RDPS_IcePellets-Accum_Sfc_RLatLon0.09_PT053H.grib2 2026-04-15 02:56 29K
20260415T00Z_MSC_RDPS_KIndex_Sfc_RLatLon0.09_PT053H.grib2 2026-04-15 02:56 2.4M
20260415T00Z_MSC_RDPS_LatentHeatNetFlux_Sfc_RLatLon0.09_PT053H.grib2 2026-04-15 02:56 385K
20260415T00Z_MSC_RDPS_LiftedIndex-MU-VT_IsbL-0500_RLatLon0.09_PT053H.grib2 2026-04-15 02:56 2.4M
20260415T00Z_MSC_RDPS_NetLongwaveRadiationFlux-Accum_Sfc_RLatLon0.09_PT053H.grib2 2026-04-15 02:56 551K
20260415T00Z_MSC_RDPS_NetShortwaveRadiationFlux-Accum_Sfc_RLatLon0.09_PT053H.grib2 2026-04-15 02:56 552K
20260415T00Z_MSC_RDPS_PlanetaryBoundaryLayerHeight_Sfc_RLatLon0.09_PT053H.grib2 2026-04-15 02:56 1.1M
20260415T00Z_MSC_RDPS_Precip-Accum1h_Sfc_RLatLon0.09_PT053H.grib2 2026-04-15 02:56 1.3M
20260415T00Z_MSC_RDPS_Precip-Accum_Sfc_RLatLon0.09_PT053H.grib2 2026-04-15 02:56 2.0M
20260415T00Z_MSC_RDPS_PrecipRate_Sfc_RLatLon0.09_PT053H.grib2 2026-04-15 02:56 175K
20260415T00Z_MSC_RDPS_PrecipType-Instant_Sfc_RLatLon0.09_PT053H.grib2 2026-04-15 02:56 564K
20260415T00Z_MSC_RDPS_Pressure-Trend3h_Sfc_RLatLon0.09_PT053H.grib2 2026-04-15 02:56 1.2M
20260415T00Z_MSC_RDPS_Pressure_MSL_RLatLon0.09_PT053H.grib2 2026-04-15 02:56 289K
20260415T00Z_MSC_RDPS_Pressure_PVU-1.5_RLatLon0.09_PT053H.grib2 2026-04-15 02:56 2.4M
20260415T00Z_MSC_RDPS_Pressure_PVU-1_RLatLon0.09_PT053H.grib2 2026-04-15 02:56 2.4M
20260415T00Z_MSC_RDPS_Pressure_PVU-2_RLatLon0.09_PT053H.grib2 2026-04-15 02:56 2.4M
20260415T00Z_MSC_RDPS_Pressure_Sfc_RLatLon0.09_PT053H.grib2 2026-04-15 02:56 498K
20260415T00Z_MSC_RDPS_RadiativeTemp_Sfc_RLatLon0.09_PT053H.grib2 2026-04-15 02:56 303K
20260415T00Z_MSC_RDPS_Rain-Accum1h_Sfc_RLatLon0.09_PT053H.grib2 2026-04-15 02:56 588K
20260415T00Z_MSC_RDPS_Rain-Accum_Sfc_RLatLon0.09_PT053H.grib2 2026-04-15 02:56 1.5M
20260415T00Z_MSC_RDPS_RelativeHumidity_AGL-2m_RLatLon0.09_PT053H.grib2 2026-04-15 02:56 1.0M
20260415T00Z_MSC_RDPS_RelativeHumidity_IsbL-0010_RLatLon0.09_PT053H.grib2 2026-04-15 02:56 511K
20260415T00Z_MSC_RDPS_RelativeHumidity_IsbL-0020_RLatLon0.09_PT053H.grib2 2026-04-15 02:56 400K
20260415T00Z_MSC_RDPS_RelativeHumidity_IsbL-0030_RLatLon0.09_PT053H.grib2 2026-04-15 02:56 360K
20260415T00Z_MSC_RDPS_RelativeHumidity_IsbL-0050_RLatLon0.09_PT053H.grib2 2026-04-15 02:56 346K
20260415T00Z_MSC_RDPS_RelativeHumidity_IsbL-0100_RLatLon0.09_PT053H.grib2 2026-04-15 02:56 256K
20260415T00Z_MSC_RDPS_RelativeHumidity_IsbL-0150_RLatLon0.09_PT053H.grib2 2026-04-15 02:56 374K
20260415T00Z_MSC_RDPS_RelativeHumidity_IsbL-0175_RLatLon0.09_PT053H.grib2 2026-04-15 02:56 456K
20260415T00Z_MSC_RDPS_RelativeHumidity_IsbL-0200_RLatLon0.09_PT053H.grib2 2026-04-15 02:56 535K
20260415T00Z_MSC_RDPS_RelativeHumidity_IsbL-0225_RLatLon0.09_PT053H.grib2 2026-04-15 02:56 606K
20260415T00Z_MSC_RDPS_RelativeHumidity_IsbL-0250_RLatLon0.09_PT053H.grib2 2026-04-15 02:56 679K
20260415T00Z_MSC_RDPS_RelativeHumidity_IsbL-0275_RLatLon0.09_PT053H.grib2 2026-04-15 02:56 707K
20260415T00Z_MSC_RDPS_RelativeHumidity_IsbL-0300_RLatLon0.09_PT053H.grib2 2026-04-15 02:56 754K
20260415T00Z_MSC_RDPS_RelativeHumidity_IsbL-0350_RLatLon0.09_PT053H.grib2 2026-04-15 02:56 770K
20260415T00Z_MSC_RDPS_RelativeHumidity_IsbL-0400_RLatLon0.09_PT053H.grib2 2026-04-15 02:56 779K
20260415T00Z_MSC_RDPS_RelativeHumidity_IsbL-0450_RLatLon0.09_PT053H.grib2 2026-04-15 02:56 787K
20260415T00Z_MSC_RDPS_RelativeHumidity_IsbL-0500_RLatLon0.09_PT053H.grib2 2026-04-15 02:56 796K
20260415T00Z_MSC_RDPS_RelativeHumidity_IsbL-0550_RLatLon0.09_PT053H.grib2 2026-04-15 02:56 829K
20260415T00Z_MSC_RDPS_RelativeHumidity_IsbL-0600_RLatLon0.09_PT053H.grib2 2026-04-15 02:56 852K
20260415T00Z_MSC_RDPS_RelativeHumidity_IsbL-0650_RLatLon0.09_PT053H.grib2 2026-04-15 02:56 860K
20260415T00Z_MSC_RDPS_RelativeHumidity_IsbL-0700_RLatLon0.09_PT053H.grib2 2026-04-15 02:56 878K
20260415T00Z_MSC_RDPS_RelativeHumidity_IsbL-0750_RLatLon0.09_PT053H.grib2 2026-04-15 02:56 920K
20260415T00Z_MSC_RDPS_RelativeHumidity_IsbL-0800_RLatLon0.09_PT053H.grib2 2026-04-15 02:56 1.0M
20260415T00Z_MSC_RDPS_RelativeHumidity_IsbL-0850_RLatLon0.09_PT053H.grib2 2026-04-15 02:56 1.0M
20260415T00Z_MSC_RDPS_RelativeHumidity_IsbL-0875_RLatLon0.09_PT053H.grib2 2026-04-15 02:56 1.0M
20260415T00Z_MSC_RDPS_RelativeHumidity_IsbL-0900_RLatLon0.09_PT053H.grib2 2026-04-15 02:56 1.1M
20260415T00Z_MSC_RDPS_RelativeHumidity_IsbL-0925_RLatLon0.09_PT053H.grib2 2026-04-15 02:56 1.1M
20260415T00Z_MSC_RDPS_RelativeHumidity_IsbL-0950_RLatLon0.09_PT053H.grib2 2026-04-15 02:56 1.1M
20260415T00Z_MSC_RDPS_RelativeHumidity_IsbL-0970_RLatLon0.09_PT053H.grib2 2026-04-15 02:56 1.0M
20260415T00Z_MSC_RDPS_RelativeHumidity_IsbL-0985_RLatLon0.09_PT053H.grib2 2026-04-15 02:56 1.0M
20260415T00Z_MSC_RDPS_RelativeHumidity_IsbL-1000_RLatLon0.09_PT053H.grib2 2026-04-15 02:56 1.0M
20260415T00Z_MSC_RDPS_RelativeHumidity_IsbL-1015_RLatLon0.09_PT053H.grib2 2026-04-15 02:56 1.0M
20260415T00Z_MSC_RDPS_Runoff-Accum_Sfc_RLatLon0.09_PT053H.grib2 2026-04-15 02:56 57K
20260415T00Z_MSC_RDPS_SWEATIndex_Sfc_RLatLon0.09_PT053H.grib2 2026-04-15 02:56 2.4M
20260415T00Z_MSC_RDPS_SeeingIndex_EAtm_RLatLon0.09_PT053H.grib2 2026-04-15 02:56 1.0M
20260415T00Z_MSC_RDPS_SensibleHeatNetFlux_Sfc_RLatLon0.09_PT053H.grib2 2026-04-15 02:56 284K
20260415T00Z_MSC_RDPS_ShowalterIndex_IsbL-0500_RLatLon0.09_PT053H.grib2 2026-04-15 02:56 2.6M
20260415T00Z_MSC_RDPS_SkyTransparencyIndex_EAtm_RLatLon0.09_PT053H.grib2 2026-04-15 02:56 708K
20260415T00Z_MSC_RDPS_Snow-Accum1h_Sfc_RLatLon0.09_PT053H.grib2 2026-04-15 02:56 512K
20260415T00Z_MSC_RDPS_Snow-Accum_Sfc_RLatLon0.09_PT053H.grib2 2026-04-15 02:56 848K
20260415T00Z_MSC_RDPS_SnowDensity_Sfc_RLatLon0.09_PT053H.grib2 2026-04-15 02:56 177K
20260415T00Z_MSC_RDPS_SnowDepth_Sfc_RLatLon0.09_PT053H.grib2 2026-04-15 02:56 738K
20260415T00Z_MSC_RDPS_SoilTemp_DBS-0to10cm_RLatLon0.09_PT053H.grib2 2026-04-15 02:56 236K
20260415T00Z_MSC_RDPS_SoilTemp_Sfc_RLatLon0.09_PT053H.grib2 2026-04-15 02:56 260K
20260415T00Z_MSC_RDPS_SoilVolumetricIceContent_Sfc_RLatLon0.09_PT053H.grib2 2026-04-15 02:56 175K
20260415T00Z_MSC_RDPS_SoilVolumetricWaterContent_DBS-0to10cm_RLatLon0.09_PT053H.grib2 2026-04-15 02:56 245K
20260415T00Z_MSC_RDPS_SoilVolumetricWaterContent_DBS-0to1cm_RLatLon0.09_PT053H.grib2 2026-04-15 02:56 336K
20260415T00Z_MSC_RDPS_SpecificHumidity_AGL-120m_RLatLon0.09_PT053H.grib2 2026-04-15 02:56 469K
20260415T00Z_MSC_RDPS_SpecificHumidity_AGL-2m_RLatLon0.09_PT053H.grib2 2026-04-15 02:56 629K
20260415T00Z_MSC_RDPS_SpecificHumidity_AGL-40m_RLatLon0.09_PT053H.grib2 2026-04-15 02:56 473K
20260415T00Z_MSC_RDPS_SpecificHumidity_AGL-80m_RLatLon0.09_PT053H.grib2 2026-04-15 02:56 470K
20260415T00Z_MSC_RDPS_SpecificHumidity_IsbL-0001_RLatLon0.09_PT053H.grib2 2026-04-15 02:56 294K
20260415T00Z_MSC_RDPS_SpecificHumidity_IsbL-0005_RLatLon0.09_PT053H.grib2 2026-04-15 02:56 340K
20260415T00Z_MSC_RDPS_SpecificHumidity_IsbL-0010_RLatLon0.09_PT053H.grib2 2026-04-15 02:56 373K
20260415T00Z_MSC_RDPS_SpecificHumidity_IsbL-0020_RLatLon0.09_PT053H.grib2 2026-04-15 02:56 378K
20260415T00Z_MSC_RDPS_SpecificHumidity_IsbL-0030_RLatLon0.09_PT053H.grib2 2026-04-15 02:56 433K
20260415T00Z_MSC_RDPS_SpecificHumidity_IsbL-0050_RLatLon0.09_PT053H.grib2 2026-04-15 02:56 494K
20260415T00Z_MSC_RDPS_SpecificHumidity_IsbL-0100_RLatLon0.09_PT053H.grib2 2026-04-15 02:56 486K
20260415T00Z_MSC_RDPS_SpecificHumidity_IsbL-0150_RLatLon0.09_PT053H.grib2 2026-04-15 02:56 433K
20260415T00Z_MSC_RDPS_SpecificHumidity_IsbL-0175_RLatLon0.09_PT053H.grib2 2026-04-15 02:56 422K
20260415T00Z_MSC_RDPS_SpecificHumidity_IsbL-0200_RLatLon0.09_PT053H.grib2 2026-04-15 02:56 434K
20260415T00Z_MSC_RDPS_SpecificHumidity_IsbL-0225_RLatLon0.09_PT053H.grib2 2026-04-15 02:56 437K
20260415T00Z_MSC_RDPS_SpecificHumidity_IsbL-0250_RLatLon0.09_PT053H.grib2 2026-04-15 02:56 542K
20260415T00Z_MSC_RDPS_SpecificHumidity_IsbL-0275_RLatLon0.09_PT053H.grib2 2026-04-15 02:56 456K
20260415T00Z_MSC_RDPS_SpecificHumidity_IsbL-0300_RLatLon0.09_PT053H.grib2 2026-04-15 02:56 526K
20260415T00Z_MSC_RDPS_SpecificHumidity_IsbL-0350_RLatLon0.09_PT053H.grib2 2026-04-15 02:56 517K
20260415T00Z_MSC_RDPS_SpecificHumidity_IsbL-0400_RLatLon0.09_PT053H.grib2 2026-04-15 02:56 497K
20260415T00Z_MSC_RDPS_SpecificHumidity_IsbL-0450_RLatLon0.09_PT053H.grib2 2026-04-15 02:56 551K
20260415T00Z_MSC_RDPS_SpecificHumidity_IsbL-0500_RLatLon0.09_PT053H.grib2 2026-04-15 02:56 490K
20260415T00Z_MSC_RDPS_SpecificHumidity_IsbL-0550_RLatLon0.09_PT053H.grib2 2026-04-15 02:56 565K
20260415T00Z_MSC_RDPS_SpecificHumidity_IsbL-0600_RLatLon0.09_PT053H.grib2 2026-04-15 02:56 619K
20260415T00Z_MSC_RDPS_SpecificHumidity_IsbL-0650_RLatLon0.09_PT053H.grib2 2026-04-15 02:56 535K
20260415T00Z_MSC_RDPS_SpecificHumidity_IsbL-0700_RLatLon0.09_PT053H.grib2 2026-04-15 02:56 575K
20260415T00Z_MSC_RDPS_SpecificHumidity_IsbL-0750_RLatLon0.09_PT053H.grib2 2026-04-15 02:56 630K
20260415T00Z_MSC_RDPS_SpecificHumidity_IsbL-0800_RLatLon0.09_PT053H.grib2 2026-04-15 02:56 702K
20260415T00Z_MSC_RDPS_SpecificHumidity_IsbL-0850_RLatLon0.09_PT053H.grib2 2026-04-15 02:56 779K
20260415T00Z_MSC_RDPS_SpecificHumidity_IsbL-0875_RLatLon0.09_PT053H.grib2 2026-04-15 02:56 801K
20260415T00Z_MSC_RDPS_SpecificHumidity_IsbL-0900_RLatLon0.09_PT053H.grib2 2026-04-15 02:56 816K
20260415T00Z_MSC_RDPS_SpecificHumidity_IsbL-0925_RLatLon0.09_PT053H.grib2 2026-04-15 02:56 823K
20260415T00Z_MSC_RDPS_SpecificHumidity_IsbL-0950_RLatLon0.09_PT053H.grib2 2026-04-15 02:56 821K
20260415T00Z_MSC_RDPS_SpecificHumidity_IsbL-0970_RLatLon0.09_PT053H.grib2 2026-04-15 02:56 810K
20260415T00Z_MSC_RDPS_SpecificHumidity_IsbL-0985_RLatLon0.09_PT053H.grib2 2026-04-15 02:56 801K
20260415T00Z_MSC_RDPS_SpecificHumidity_IsbL-1000_RLatLon0.09_PT053H.grib2 2026-04-15 02:56 792K
20260415T00Z_MSC_RDPS_SpecificHumidity_IsbL-1015_RLatLon0.09_PT053H.grib2 2026-04-15 02:56 643K
20260415T00Z_MSC_RDPS_SpecificHumidity_Sfc_RLatLon0.09_PT053H.grib2 2026-04-15 02:56 279K
20260415T00Z_MSC_RDPS_StormRelativeHelicity_EtaL-10000_RLatLon0.09_PT053H.grib2 2026-04-15 02:56 1.1M
20260415T00Z_MSC_RDPS_StormSeverityIndex_EtaL-10000_RLatLon0.09_PT053H.grib2 2026-04-15 02:56 1.2M
20260415T00Z_MSC_RDPS_Thickness_IsbL-0850to0700_RLatLon0.09_PT053H.grib2 2026-04-15 02:56 173K
20260415T00Z_MSC_RDPS_Thickness_IsbL-1000to0500_RLatLon0.09_PT053H.grib2 2026-04-15 02:56 196K
20260415T00Z_MSC_RDPS_Thickness_IsbL-1000to0850_RLatLon0.09_PT053H.grib2 2026-04-15 02:56 182K
20260415T00Z_MSC_RDPS_TotalCloudCover_Sfc_RLatLon0.09_PT053H.grib2 2026-04-15 02:56 669K
20260415T00Z_MSC_RDPS_TotalTotalsIndex_Sfc_RLatLon0.09_PT053H.grib2 2026-04-15 02:56 2.4M
20260415T00Z_MSC_RDPS_UVIndex-ClearSky_Sfc_RLatLon0.09_PT053H.grib2 2026-04-15 02:56 85K
20260415T00Z_MSC_RDPS_UVIndex_Sfc_RLatLon0.09_PT053H.grib2 2026-04-15 02:56 141K
20260415T00Z_MSC_RDPS_UpwardLongwaveRadiationFlux_NTAtm_RLatLon0.09_PT053H.grib2 2026-04-15 02:56 478K
20260415T00Z_MSC_RDPS_UpwardShortwaveRadiationFlux_NTAtm_RLatLon0.09_PT053H.grib2 2026-04-15 02:56 122K
20260415T00Z_MSC_RDPS_VerticalVelocity_IsbL-0250_RLatLon0.09_PT053H.grib2 2026-04-15 02:56 679K
20260415T00Z_MSC_RDPS_VerticalVelocity_IsbL-0500_RLatLon0.09_PT053H.grib2 2026-04-15 02:56 536K
20260415T00Z_MSC_RDPS_VerticalVelocity_IsbL-0700_RLatLon0.09_PT053H.grib2 2026-04-15 02:56 581K
20260415T00Z_MSC_RDPS_VerticalVelocity_IsbL-0850_RLatLon0.09_PT053H.grib2 2026-04-15 02:56 680K
20260415T00Z_MSC_RDPS_VerticalWindShear_EtaL-6500_RLatLon0.09_PT053H.grib2 2026-04-15 02:56 1.2M
20260415T00Z_MSC_RDPS_WindChill_Sfc_RLatLon0.09_PT053H.grib2 2026-04-15 02:56 1.2M
20260415T00Z_MSC_RDPS_WindDir_AGL-10m_RLatLon0.09_PT053H.grib2 2026-04-15 02:56 1.0M
20260415T00Z_MSC_RDPS_WindDir_AGL-120m_RLatLon0.09_PT053H.grib2 2026-04-15 02:56 598K
20260415T00Z_MSC_RDPS_WindDir_AGL-40m_RLatLon0.09_PT053H.grib2 2026-04-15 02:56 636K
20260415T00Z_MSC_RDPS_WindDir_AGL-80m_RLatLon0.09_PT053H.grib2 2026-04-15 02:56 613K
20260415T00Z_MSC_RDPS_WindDir_IsbL-0001_RLatLon0.09_PT053H.grib2 2026-04-15 02:56 250K
20260415T00Z_MSC_RDPS_WindDir_IsbL-0005_RLatLon0.09_PT053H.grib2 2026-04-15 02:56 347K
20260415T00Z_MSC_RDPS_WindDir_IsbL-0010_RLatLon0.09_PT053H.grib2 2026-04-15 02:56 361K
20260415T00Z_MSC_RDPS_WindDir_IsbL-0020_RLatLon0.09_PT053H.grib2 2026-04-15 02:56 378K
20260415T00Z_MSC_RDPS_WindDir_IsbL-0030_RLatLon0.09_PT053H.grib2 2026-04-15 02:56 370K
20260415T00Z_MSC_RDPS_WindDir_IsbL-0050_RLatLon0.09_PT053H.grib2 2026-04-15 02:56 402K
20260415T00Z_MSC_RDPS_WindDir_IsbL-0100_RLatLon0.09_PT053H.grib2 2026-04-15 02:56 391K
20260415T00Z_MSC_RDPS_WindDir_IsbL-0150_RLatLon0.09_PT053H.grib2 2026-04-15 02:56 375K
20260415T00Z_MSC_RDPS_WindDir_IsbL-0175_RLatLon0.09_PT053H.grib2 2026-04-15 02:56 402K
20260415T00Z_MSC_RDPS_WindDir_IsbL-0200_RLatLon0.09_PT053H.grib2 2026-04-15 02:56 413K
20260415T00Z_MSC_RDPS_WindDir_IsbL-0225_RLatLon0.09_PT053H.grib2 2026-04-15 02:56 421K
20260415T00Z_MSC_RDPS_WindDir_IsbL-0250_RLatLon0.09_PT053H.grib2 2026-04-15 02:56 426K
20260415T00Z_MSC_RDPS_WindDir_IsbL-0275_RLatLon0.09_PT053H.grib2 2026-04-15 02:56 452K
20260415T00Z_MSC_RDPS_WindDir_IsbL-0300_RLatLon0.09_PT053H.grib2 2026-04-15 02:56 452K
20260415T00Z_MSC_RDPS_WindDir_IsbL-0350_RLatLon0.09_PT053H.grib2 2026-04-15 02:56 478K
20260415T00Z_MSC_RDPS_WindDir_IsbL-0400_RLatLon0.09_PT053H.grib2 2026-04-15 02:56 496K
20260415T00Z_MSC_RDPS_WindDir_IsbL-0450_RLatLon0.09_PT053H.grib2 2026-04-15 02:56 518K
20260415T00Z_MSC_RDPS_WindDir_IsbL-0500_RLatLon0.09_PT053H.grib2 2026-04-15 02:56 539K
20260415T00Z_MSC_RDPS_WindDir_IsbL-0550_RLatLon0.09_PT053H.grib2 2026-04-15 02:56 558K
20260415T00Z_MSC_RDPS_WindDir_IsbL-0600_RLatLon0.09_PT053H.grib2 2026-04-15 02:56 587K
20260415T00Z_MSC_RDPS_WindDir_IsbL-0650_RLatLon0.09_PT053H.grib2 2026-04-15 02:56 628K
20260415T00Z_MSC_RDPS_WindDir_IsbL-0700_RLatLon0.09_PT053H.grib2 2026-04-15 02:56 667K
20260415T00Z_MSC_RDPS_WindDir_IsbL-0750_RLatLon0.09_PT053H.grib2 2026-04-15 02:56 709K
20260415T00Z_MSC_RDPS_WindDir_IsbL-0800_RLatLon0.09_PT053H.grib2 2026-04-15 02:56 773K
20260415T00Z_MSC_RDPS_WindDir_IsbL-0850_RLatLon0.09_PT053H.grib2 2026-04-15 02:56 842K
20260415T00Z_MSC_RDPS_WindDir_IsbL-0875_RLatLon0.09_PT053H.grib2 2026-04-15 02:56 872K
20260415T00Z_MSC_RDPS_WindDir_IsbL-0900_RLatLon0.09_PT053H.grib2 2026-04-15 02:56 893K
20260415T00Z_MSC_RDPS_WindDir_IsbL-0925_RLatLon0.09_PT053H.grib2 2026-04-15 02:56 906K
20260415T00Z_MSC_RDPS_WindDir_IsbL-0950_RLatLon0.09_PT053H.grib2 2026-04-15 02:56 911K
20260415T00Z_MSC_RDPS_WindDir_IsbL-0970_RLatLon0.09_PT053H.grib2 2026-04-15 02:56 918K
20260415T00Z_MSC_RDPS_WindDir_IsbL-0985_RLatLon0.09_PT053H.grib2 2026-04-15 02:56 931K
20260415T00Z_MSC_RDPS_WindDir_IsbL-1000_RLatLon0.09_PT053H.grib2 2026-04-15 02:56 947K
20260415T00Z_MSC_RDPS_WindDir_IsbL-1015_RLatLon0.09_PT053H.grib2 2026-04-15 02:56 966K
20260415T00Z_MSC_RDPS_WindGust-Max_AGL-10m_RLatLon0.09_PT053H.grib2 2026-04-15 02:56 964K
20260415T00Z_MSC_RDPS_WindGust-Min_AGL-10m_RLatLon0.09_PT053H.grib2 2026-04-15 02:56 972K
20260415T00Z_MSC_RDPS_WindGust_AGL-10m_RLatLon0.09_PT053H.grib2 2026-04-15 02:56 1.0M
20260415T00Z_MSC_RDPS_WindSpeed_AGL-10m_RLatLon0.09_PT053H.grib2 2026-04-15 02:56 843K
20260415T00Z_MSC_RDPS_WindSpeed_AGL-120m_RLatLon0.09_PT053H.grib2 2026-04-15 02:56 539K
20260415T00Z_MSC_RDPS_WindSpeed_AGL-40m_RLatLon0.09_PT053H.grib2 2026-04-15 02:56 673K
20260415T00Z_MSC_RDPS_WindSpeed_AGL-80m_RLatLon0.09_PT053H.grib2 2026-04-15 02:56 541K
20260415T00Z_MSC_RDPS_WindSpeed_IsbL-0001_RLatLon0.09_PT053H.grib2 2026-04-15 02:56 245K
20260415T00Z_MSC_RDPS_WindSpeed_IsbL-0005_RLatLon0.09_PT053H.grib2 2026-04-15 02:56 336K
20260415T00Z_MSC_RDPS_WindSpeed_IsbL-0010_RLatLon0.09_PT053H.grib2 2026-04-15 02:56 349K
20260415T00Z_MSC_RDPS_WindSpeed_IsbL-0020_RLatLon0.09_PT053H.grib2 2026-04-15 02:56 370K
20260415T00Z_MSC_RDPS_WindSpeed_IsbL-0030_RLatLon0.09_PT053H.grib2 2026-04-15 02:56 335K
20260415T00Z_MSC_RDPS_WindSpeed_IsbL-0050_RLatLon0.09_PT053H.grib2 2026-04-15 02:56 373K
20260415T00Z_MSC_RDPS_WindSpeed_IsbL-0100_RLatLon0.09_PT053H.grib2 2026-04-15 02:56 486K
20260415T00Z_MSC_RDPS_WindSpeed_IsbL-0150_RLatLon0.09_PT053H.grib2 2026-04-15 02:56 470K
20260415T00Z_MSC_RDPS_WindSpeed_IsbL-0175_RLatLon0.09_PT053H.grib2 2026-04-15 02:56 394K
20260415T00Z_MSC_RDPS_WindSpeed_IsbL-0200_RLatLon0.09_PT053H.grib2 2026-04-15 02:56 433K
20260415T00Z_MSC_RDPS_WindSpeed_IsbL-0225_RLatLon0.09_PT053H.grib2 2026-04-15 02:56 444K
20260415T00Z_MSC_RDPS_WindSpeed_IsbL-0250_RLatLon0.09_PT053H.grib2 2026-04-15 02:56 447K
20260415T00Z_MSC_RDPS_WindSpeed_IsbL-0275_RLatLon0.09_PT053H.grib2 2026-04-15 02:56 463K
20260415T00Z_MSC_RDPS_WindSpeed_IsbL-0300_RLatLon0.09_PT053H.grib2 2026-04-15 02:56 462K
20260415T00Z_MSC_RDPS_WindSpeed_IsbL-0350_RLatLon0.09_PT053H.grib2 2026-04-15 02:56 472K
20260415T00Z_MSC_RDPS_WindSpeed_IsbL-0400_RLatLon0.09_PT053H.grib2 2026-04-15 02:56 456K
20260415T00Z_MSC_RDPS_WindSpeed_IsbL-0450_RLatLon0.09_PT053H.grib2 2026-04-15 02:56 455K
20260415T00Z_MSC_RDPS_WindSpeed_IsbL-0500_RLatLon0.09_PT053H.grib2 2026-04-15 02:56 570K
20260415T00Z_MSC_RDPS_WindSpeed_IsbL-0550_RLatLon0.09_PT053H.grib2 2026-04-15 02:56 572K
20260415T00Z_MSC_RDPS_WindSpeed_IsbL-0600_RLatLon0.09_PT053H.grib2 2026-04-15 02:56 583K
20260415T00Z_MSC_RDPS_WindSpeed_IsbL-0650_RLatLon0.09_PT053H.grib2 2026-04-15 02:56 646K
20260415T00Z_MSC_RDPS_WindSpeed_IsbL-0700_RLatLon0.09_PT053H.grib2 2026-04-15 02:56 666K
20260415T00Z_MSC_RDPS_WindSpeed_IsbL-0750_RLatLon0.09_PT053H.grib2 2026-04-15 02:56 695K
20260415T00Z_MSC_RDPS_WindSpeed_IsbL-0800_RLatLon0.09_PT053H.grib2 2026-04-15 02:56 703K
20260415T00Z_MSC_RDPS_WindSpeed_IsbL-0850_RLatLon0.09_PT053H.grib2 2026-04-15 02:56 761K
20260415T00Z_MSC_RDPS_WindSpeed_IsbL-0875_RLatLon0.09_PT053H.grib2 2026-04-15 02:56 786K
20260415T00Z_MSC_RDPS_WindSpeed_IsbL-0900_RLatLon0.09_PT053H.grib2 2026-04-15 02:56 805K
20260415T00Z_MSC_RDPS_WindSpeed_IsbL-0925_RLatLon0.09_PT053H.grib2 2026-04-15 02:56 864K
20260415T00Z_MSC_RDPS_WindSpeed_IsbL-0950_RLatLon0.09_PT053H.grib2 2026-04-15 02:56 867K
20260415T00Z_MSC_RDPS_WindSpeed_IsbL-0970_RLatLon0.09_PT053H.grib2 2026-04-15 02:56 861K
20260415T00Z_MSC_RDPS_WindSpeed_IsbL-0985_RLatLon0.09_PT053H.grib2 2026-04-15 02:56 858K
20260415T00Z_MSC_RDPS_WindSpeed_IsbL-1000_RLatLon0.09_PT053H.grib2 2026-04-15 02:56 852K
20260415T00Z_MSC_RDPS_WindSpeed_IsbL-1015_RLatLon0.09_PT053H.grib2 2026-04-15 02:56 842K
20260415T00Z_MSC_RDPS_WindU_AGL-10m_RLatLon0.09_PT053H.grib2 2026-04-15 02:56 431K
20260415T00Z_MSC_RDPS_WindU_AGL-120m_RLatLon0.09_PT053H.grib2 2026-04-15 02:56 419K
20260415T00Z_MSC_RDPS_WindU_AGL-40m_RLatLon0.09_PT053H.grib2 2026-04-15 02:56 540K
20260415T00Z_MSC_RDPS_WindU_AGL-80m_RLatLon0.09_PT053H.grib2 2026-04-15 02:56 537K
20260415T00Z_MSC_RDPS_WindU_IsbL-0001_RLatLon0.09_PT053H.grib2 2026-04-15 02:56 286K
20260415T00Z_MSC_RDPS_WindU_IsbL-0005_RLatLon0.09_PT053H.grib2 2026-04-15 02:56 301K
20260415T00Z_MSC_RDPS_WindU_IsbL-0010_RLatLon0.09_PT053H.grib2 2026-04-15 02:56 314K
20260415T00Z_MSC_RDPS_WindU_IsbL-0020_RLatLon0.09_PT053H.grib2 2026-04-15 02:56 333K
20260415T00Z_MSC_RDPS_WindU_IsbL-0030_RLatLon0.09_PT053H.grib2 2026-04-15 02:56 259K
20260415T00Z_MSC_RDPS_WindU_IsbL-0050_RLatLon0.09_PT053H.grib2 2026-04-15 02:56 367K
20260415T00Z_MSC_RDPS_WindU_IsbL-0100_RLatLon0.09_PT053H.grib2 2026-04-15 02:56 343K
20260415T00Z_MSC_RDPS_WindU_IsbL-0150_RLatLon0.09_PT053H.grib2 2026-04-15 02:56 387K
20260415T00Z_MSC_RDPS_WindU_IsbL-0175_RLatLon0.09_PT053H.grib2 2026-04-15 02:56 410K
20260415T00Z_MSC_RDPS_WindU_IsbL-0200_RLatLon0.09_PT053H.grib2 2026-04-15 02:56 427K
20260415T00Z_MSC_RDPS_WindU_IsbL-0225_RLatLon0.09_PT053H.grib2 2026-04-15 02:56 435K
20260415T00Z_MSC_RDPS_WindU_IsbL-0250_RLatLon0.09_PT053H.grib2 2026-04-15 02:56 438K
20260415T00Z_MSC_RDPS_WindU_IsbL-0275_RLatLon0.09_PT053H.grib2 2026-04-15 02:56 456K
20260415T00Z_MSC_RDPS_WindU_IsbL-0300_RLatLon0.09_PT053H.grib2 2026-04-15 02:56 452K
20260415T00Z_MSC_RDPS_WindU_IsbL-0350_RLatLon0.09_PT053H.grib2 2026-04-15 02:56 460K
20260415T00Z_MSC_RDPS_WindU_IsbL-0400_RLatLon0.09_PT053H.grib2 2026-04-15 02:56 461K
20260415T00Z_MSC_RDPS_WindU_IsbL-0450_RLatLon0.09_PT053H.grib2 2026-04-15 02:56 462K
20260415T00Z_MSC_RDPS_WindU_IsbL-0500_RLatLon0.09_PT053H.grib2 2026-04-15 02:56 463K
20260415T00Z_MSC_RDPS_WindU_IsbL-0550_RLatLon0.09_PT053H.grib2 2026-04-15 02:56 464K
20260415T00Z_MSC_RDPS_WindU_IsbL-0600_RLatLon0.09_PT053H.grib2 2026-04-15 02:56 474K
20260415T00Z_MSC_RDPS_WindU_IsbL-0650_RLatLon0.09_PT053H.grib2 2026-04-15 02:56 474K
20260415T00Z_MSC_RDPS_WindU_IsbL-0700_RLatLon0.09_PT053H.grib2 2026-04-15 02:56 494K
20260415T00Z_MSC_RDPS_WindU_IsbL-0750_RLatLon0.09_PT053H.grib2 2026-04-15 02:56 518K
20260415T00Z_MSC_RDPS_WindU_IsbL-0800_RLatLon0.09_PT053H.grib2 2026-04-15 02:56 564K
20260415T00Z_MSC_RDPS_WindU_IsbL-0850_RLatLon0.09_PT053H.grib2 2026-04-15 02:56 617K
20260415T00Z_MSC_RDPS_WindU_IsbL-0875_RLatLon0.09_PT053H.grib2 2026-04-15 02:56 639K
20260415T00Z_MSC_RDPS_WindU_IsbL-0900_RLatLon0.09_PT053H.grib2 2026-04-15 02:56 660K
20260415T00Z_MSC_RDPS_WindU_IsbL-0925_RLatLon0.09_PT053H.grib2 2026-04-15 02:56 668K
20260415T00Z_MSC_RDPS_WindU_IsbL-0950_RLatLon0.09_PT053H.grib2 2026-04-15 02:56 660K
20260415T00Z_MSC_RDPS_WindU_IsbL-0970_RLatLon0.09_PT053H.grib2 2026-04-15 02:56 657K
20260415T00Z_MSC_RDPS_WindU_IsbL-0985_RLatLon0.09_PT053H.grib2 2026-04-15 02:56 794K
20260415T00Z_MSC_RDPS_WindU_IsbL-1000_RLatLon0.09_PT053H.grib2 2026-04-15 02:56 789K
20260415T00Z_MSC_RDPS_WindU_IsbL-1015_RLatLon0.09_PT053H.grib2 2026-04-15 02:56 781K
20260415T00Z_MSC_RDPS_WindV_AGL-10m_RLatLon0.09_PT053H.grib2 2026-04-15 02:56 429K
20260415T00Z_MSC_RDPS_WindV_AGL-120m_RLatLon0.09_PT053H.grib2 2026-04-15 02:56 532K
20260415T00Z_MSC_RDPS_WindV_AGL-40m_RLatLon0.09_PT053H.grib2 2026-04-15 02:56 536K
20260415T00Z_MSC_RDPS_WindV_AGL-80m_RLatLon0.09_PT053H.grib2 2026-04-15 02:56 534K
20260415T00Z_MSC_RDPS_WindV_IsbL-0001_RLatLon0.09_PT053H.grib2 2026-04-15 02:56 262K
20260415T00Z_MSC_RDPS_WindV_IsbL-0005_RLatLon0.09_PT053H.grib2 2026-04-15 02:56 301K
20260415T00Z_MSC_RDPS_WindV_IsbL-0010_RLatLon0.09_PT053H.grib2 2026-04-15 02:56 312K
20260415T00Z_MSC_RDPS_WindV_IsbL-0020_RLatLon0.09_PT053H.grib2 2026-04-15 02:56 325K
20260415T00Z_MSC_RDPS_WindV_IsbL-0030_RLatLon0.09_PT053H.grib2 2026-04-15 02:56 365K
20260415T00Z_MSC_RDPS_WindV_IsbL-0050_RLatLon0.09_PT053H.grib2 2026-04-15 02:56 366K
20260415T00Z_MSC_RDPS_WindV_IsbL-0100_RLatLon0.09_PT053H.grib2 2026-04-15 02:56 434K
20260415T00Z_MSC_RDPS_WindV_IsbL-0150_RLatLon0.09_PT053H.grib2 2026-04-15 02:56 384K
20260415T00Z_MSC_RDPS_WindV_IsbL-0175_RLatLon0.09_PT053H.grib2 2026-04-15 02:56 316K
20260415T00Z_MSC_RDPS_WindV_IsbL-0200_RLatLon0.09_PT053H.grib2 2026-04-15 02:56 330K
20260415T00Z_MSC_RDPS_WindV_IsbL-0225_RLatLon0.09_PT053H.grib2 2026-04-15 02:56 338K
20260415T00Z_MSC_RDPS_WindV_IsbL-0250_RLatLon0.09_PT053H.grib2 2026-04-15 02:56 340K
20260415T00Z_MSC_RDPS_WindV_IsbL-0275_RLatLon0.09_PT053H.grib2 2026-04-15 02:56 353K
20260415T00Z_MSC_RDPS_WindV_IsbL-0300_RLatLon0.09_PT053H.grib2 2026-04-15 02:56 349K
20260415T00Z_MSC_RDPS_WindV_IsbL-0350_RLatLon0.09_PT053H.grib2 2026-04-15 02:56 357K
20260415T00Z_MSC_RDPS_WindV_IsbL-0400_RLatLon0.09_PT053H.grib2 2026-04-15 02:56 359K
20260415T00Z_MSC_RDPS_WindV_IsbL-0450_RLatLon0.09_PT053H.grib2 2026-04-15 02:56 459K
20260415T00Z_MSC_RDPS_WindV_IsbL-0500_RLatLon0.09_PT053H.grib2 2026-04-15 02:56 459K
20260415T00Z_MSC_RDPS_WindV_IsbL-0550_RLatLon0.09_PT053H.grib2 2026-04-15 02:56 442K
20260415T00Z_MSC_RDPS_WindV_IsbL-0600_RLatLon0.09_PT053H.grib2 2026-04-15 02:56 452K
20260415T00Z_MSC_RDPS_WindV_IsbL-0650_RLatLon0.09_PT053H.grib2 2026-04-15 02:56 470K
20260415T00Z_MSC_RDPS_WindV_IsbL-0700_RLatLon0.09_PT053H.grib2 2026-04-15 02:56 489K
20260415T00Z_MSC_RDPS_WindV_IsbL-0750_RLatLon0.09_PT053H.grib2 2026-04-15 02:56 514K
20260415T00Z_MSC_RDPS_WindV_IsbL-0800_RLatLon0.09_PT053H.grib2 2026-04-15 02:56 559K
20260415T00Z_MSC_RDPS_WindV_IsbL-0850_RLatLon0.09_PT053H.grib2 2026-04-15 02:56 743K
20260415T00Z_MSC_RDPS_WindV_IsbL-0875_RLatLon0.09_PT053H.grib2 2026-04-15 02:56 632K
20260415T00Z_MSC_RDPS_WindV_IsbL-0900_RLatLon0.09_PT053H.grib2 2026-04-15 02:56 648K
20260415T00Z_MSC_RDPS_WindV_IsbL-0925_RLatLon0.09_PT053H.grib2 2026-04-15 02:56 657K
20260415T00Z_MSC_RDPS_WindV_IsbL-0950_RLatLon0.09_PT053H.grib2 2026-04-15 02:56 656K
20260415T00Z_MSC_RDPS_WindV_IsbL-0970_RLatLon0.09_PT053H.grib2 2026-04-15 02:56 792K
20260415T00Z_MSC_RDPS_WindV_IsbL-0985_RLatLon0.09_PT053H.grib2 2026-04-15 02:56 789K
20260415T00Z_MSC_RDPS_WindV_IsbL-1000_RLatLon0.09_PT053H.grib2 2026-04-15 02:56 831K
20260415T00Z_MSC_RDPS_WindV_IsbL-1015_RLatLon0.09_PT053H.grib2 2026-04-15 02:56 823K